Regional Weather Roundup
Issued by NWS

Home | Current Version | Previous Version | Graphics & Text | Print | Product List | Glossary Off
Versions: 1 2 3 4 5 6 7 8 9 10 11 12 13 14 15 16 17 18 19 20 21 22 23 24 25 26 27 28 29 30 31 32 33 34 35 36 37 38 39 40 41 42 43 44 45 46 47 48 49 50

000
ASUS43 KTOP 270059
RWRKS

WEATHER ROUNDUP FOR KANSAS
NATIONAL WEATHER SERVICE GOODLAND KS
800 PM CDT TUE MAY 26 2015

NOTE:  "FAIR" INDICATES FEW OR NO CLOUDS BELOW 12,000 FEET WITH NO
SIGNIFICANT WEATHER AND/OR OBSTRUCTIONS TO VISIBILITY.

KSZ001>006-013>018-027>032-041>047-270200-
NORTHWEST KANSAS

CITY           SKY/WX    TMP DP  RH WIND       PRES   REMARKS
GOODLAND       MOSUNNY   67  54  63 SE3       30.01R
HAYS           PTCLDY    72  54  53 N10       29.96R
HILL CITY      CLEAR     70  52  52 NE7       29.97S
RUSSELL        CLEAR     71  55  56 N13       29.94R
$$

KSZ061>065-074>080-084>089-270200-
SOUTHWEST KANSAS

CITY           SKY/WX    TMP DP  RH WIND       PRES   REMARKS
DODGE CITY     PTCLDY    77  50  38 CALM      29.97R
ELKHART          N/A     74  50  43 E9          N/A
GARDEN CITY    PTCLDY    72  52  49 E5        29.97R
GREAT BEND     CLEAR     73  61  64 N5        29.93R
LIBERAL        CLEAR     75  52  43 E8        29.99R
$$

KSZ066>073-081>083-090>101-270200-
SOUTHEAST KANSAS

CITY           SKY/WX    TMP DP  RH WIND       PRES   REMARKS
CHANUTE        MOCLDY    70  66  87 S7        29.92R
COFFEYVILLE    MOCLDY    71  65  81 S8        29.93R
HUTCHINSON     CLEAR     79  55  43 CALM      29.93R
NEWTON         CLOUDY    75  55  50 CALM      29.96R
PARSONS        MOCLDY    70  66  87 S3        29.94R
WICHITA INTL   MOCLDY    71  61  70 NE6       29.92F
WICHITA JABRA  CLOUDY    71  60  68 SE8       29.93F
WICHITA MCCONL PTCLDY    70  63  78 SE5       29.93F
WINFIELD       MOCLDY    72  63  73 S7        29.93R
$$

KSZ007>012-019>026-033>040-048>060-102>105-270200-
NORTHEAST KANSAS

CITY           SKY/WX    TMP DP  RH WIND       PRES   REMARKS
CONCORDIA      MOCLDY    67  54  63 W9        29.93R
EMPORIA        MOCLDY    72  62  71 SW6       29.92R
LAWRENCE       CLEAR     74  60  61 W6        29.89S
MANHATTAN      PTCLDY    73  59  61 W5        29.90R
OLATHE IND     PTCLDY    75  59  57 W8        29.91R
OLATHE EXE     PTCLDY    76  59  55 W7        29.89R
SALINA         PTCLDY    74  58  57 NW6       29.92R
TOPEKA BILLARD CLEAR     74  57  55 W5        29.89R
TOPEKA FORBES  CLEAR     74  59  59 W8        29.90R
$$



USA.gov is the U.S. government's official web portal to all federal, state and local government web resources and services.